Weather History for Montreal Mirabel, QC

Change the Weather History Date:

Friday, February 7, 2014

  Actual Average Record
Temperature  
Mean Temperature 10 °F -  
Max Temperature 17 °F 21 °F 39 °F (2005)
Min Temperature 3 °F 3 °F -11 °F (2013)
Degree Days  
Heating Degree Days 55    
Moisture  
Dew Point 4 °F    
Average Humidity 70    
Maximum Humidity 85    
Minimum Humidity 58    
Precipitation  
Precipitation 0.00 in - - ()
Sea Level Pressure  
Sea Level Pressure 30.11 in    
Wind  
Wind Speed 7 mph ()    
Max Wind Speed 16 mph    
Max Gust Speed 30 mph    
Visibility 10.2 miles    
Events Snow    
Averages and records for this station are not official NWS values.
T = Trace of Precipitation, MM = Missing Value Source: Averaged Metar Reports

Daily Weather History Graph

Daily Weather History Graph

Search for Another Location

Airport:

Trip Planner

Search our weather history database for the weather conditions in past years. The results will help you decide how hot, cold, wet, or windy it might be!

Date:

Astronomy

Feb. 07, 2014 Rise Set
Actual Time 7:09 AM EST 5:11 PM EST
Civil Twilight 6:38 AM EST 5:42 PM EST
Nautical Twilight 6:03 AM EST 6:17 PM EST
Astronomical Twilight 5:29 AM EST 6:52 PM EST
Moon 11:17 AM EST (2/7) 1:25 AM EST (2/7)
Length of Visible Light 11h 03m
Length of Day
10h 01m
First Quarter, 59% of the Moon is Illuminated
Feb 7
First Quarter
Feb 14
Full
Feb 22
Last Quarter
Mar 1
New
Mar 8
First Quarter

Hourly Weather History & Observations

Time (EST) Temp. Windchill Dew Point Humidity Pressure Visibility Wind Dir Wind Speed Gust Speed Precip Events Conditions
12:00 AM 3.2 °F - -0.4 °F 85% 30.11 in 4.0 mi Calm Calm - N/A Snow Light Snow
1:00 AM 3.2 °F -4.2 °F -0.4 °F 85% 30.10 in 15.0 mi SW 3.5 mph - N/A Snow Light Snow
1:22 AM 6.8 °F -3.5 °F 3.2 °F 85% 30.09 in 25.0 mi SSW 5.8 mph - N/A   Mostly Cloudy
2:00 AM 8.6 °F -1.3 °F 5.0 °F 85% 30.10 in 25.0 mi West 5.8 mph - N/A   Mostly Cloudy
3:00 AM 10.4 °F -0.4 °F 5.0 °F 79% 30.10 in 25.0 mi WSW 6.9 mph - N/A   Mostly Cloudy
4:00 AM 8.6 °F -1.3 °F 3.2 °F 79% 30.10 in 25.0 mi SW 5.8 mph - N/A   Overcast
5:00 AM 10.4 °F -0.4 °F 3.2 °F 73% 30.10 in 25.0 mi SW 6.9 mph - N/A   Overcast
6:00 AM 10.4 °F -2.4 °F 3.2 °F 73% 30.10 in 10.0 mi SW 9.2 mph - N/A Snow Light Snow
7:00 AM 10.4 °F 0.8 °F 5.0 °F 79% 30.11 in 15.0 mi SW 5.8 mph - N/A Snow Light Snow
8:00 AM 12.2 °F 1.7 °F 5.0 °F 73% 30.12 in 8.0 mi SW 6.9 mph - N/A Snow Light Snow
9:00 AM 12.2 °F 1.7 °F 5.0 °F 73% 30.13 in 8.0 mi SW 6.9 mph - N/A Snow Light Snow
10:00 AM 14.0 °F 1.2 °F 6.8 °F 73% 30.14 in 8.0 mi WSW 10.4 mph - N/A Snow Light Snow
11:00 AM 15.8 °F 2.7 °F 6.8 °F 68% 30.13 in 15.0 mi WSW 11.5 mph 20.7 mph N/A Snow Low Drifting Snow
12:00 PM 17.6 °F 4.3 °F 5.0 °F 58% 30.12 in 45.0 mi WSW 12.7 mph 23.0 mph N/A Snow Low Drifting Snow
1:00 PM 15.8 °F 0.3 °F 3.2 °F 58% 30.11 in 40.0 mi SW 16.1 mph 25.3 mph N/A   Overcast
2:00 PM 15.8 °F 0.9 °F 3.2 °F 58% 30.10 in 45.0 mi WSW 15.0 mph 27.6 mph N/A Snow Low Drifting Snow
3:00 PM 15.8 °F 2.1 °F 3.2 °F 58% 30.09 in 45.0 mi WSW 12.7 mph 24.2 mph N/A Snow Low Drifting Snow
4:00 PM 15.8 °F 1.4 °F 3.2 °F 58% 30.09 in 25.0 mi WSW 13.8 mph 24.2 mph N/A Snow Low Drifting Snow
5:00 PM 15.8 °F 2.1 °F 5.0 °F 62% 30.09 in 25.0 mi WSW 12.7 mph 21.9 mph N/A Snow Low Drifting Snow
5:24 PM 15.8 °F 2.1 °F 5.0 °F 62% 30.09 in 10.0 mi SW 12.7 mph 21.9 mph N/A Snow Light Snow Showers
6:00 PM 15.8 °F 2.1 °F 6.8 °F 68% 30.10 in 6.0 mi SW 12.7 mph 20.7 mph N/A Snow Light Snow Showers
7:00 PM 15.8 °F 2.7 °F 6.8 °F 68% 30.11 in 8.0 mi SW 11.5 mph 27.6 mph N/A Snow Light Snow Showers
8:00 PM 15.8 °F 0.3 °F 6.8 °F 68% 30.11 in 15.0 mi SW 16.1 mph 27.6 mph N/A Snow Light Snow Showers
8:40 PM 14.0 °F -0.2 °F 5.0 °F 67% 30.12 in 25.0 mi WSW 12.7 mph 23.0 mph N/A Snow Low Drifting Snow
9:00 PM 14.0 °F -0.2 °F 5.0 °F 67% 30.11 in 25.0 mi WSW 12.7 mph 29.9 mph N/A Snow Low Drifting Snow
10:00 PM 12.2 °F -4.3 °F 1.4 °F 62% 30.12 in 25.0 mi WSW 16.1 mph 24.2 mph N/A Snow Low Drifting Snow
11:00 PM 10.4 °F -4.8 °F -0.4 °F 62% 30.14 in 25.0 mi SW 12.7 mph 19.6 mph N/A Snow Low Drifting Snow